Regional Weather Roundup
Issued by NWS

Home | Current Version | Previous Version | Graphics & Text | Print | Product List | Glossary On
Versions: 1 2 3 4 5 6 7 8 9 10 11 12 13 14 15 16 17 18 19 20 21 22 23 24 25 26 27 28 29 30 31 32 33 34 35 36 37 38 39 40 41 42 43 44 45 46 47 48 49 50
000
ASUS43 KIND 230309
RWRIN

WEATHER ROUNDUP FOR INDIANA
NATIONAL WEATHER SERVICE INDIANAPOLIS IN
1100 PM EDT SUN OCT 22 2017

NOTE: "FAIR" INDICATES FEW OR NO CLOUDS BELOW 12,000 FEET WITH NO
SIGNIFICANT WEATHER AND/OR OBSTRUCTIONS TO VISIBILITY.

* - STATION DOES NOT REPORT WEATHER SUCH AS PRECIPITATION OR FOG.

+ - STATION NOT QUALITY CONTROLLED BY THE NATIONAL WEATHER SERVICE.
    USE DATA WITH CAUTION...ESPECIALLY DEWPOINT AND RELATIVE
    HUMIDITY OBSERVATIONS.

INZ001>003-010>013-019-020-230400-
NORTHWEST INDIANA

CITY           SKY/WX    TMP DP  RH WIND       PRES   REMARKS
GARY /AIRPORT/ RAIN      55  55 100 N12       30.03F
KNOX *+        CLOUDY    55  54  94 N3        30.00F
LA PORTE +     CLOUDY    55  55  99 N8        30.01S
MICHIGAN CITY+ LGT RAIN  54  54 100 N5        30.02S
MONTICELLO +   CLOUDY    59  58  94 N7        29.98F
RENSSELAER +   CLOUDY    54  50  87 N8        30.00F
VALPARAISO     LGT RAIN  56  55  97 N6        30.01F

$$

LMZ046-743>745-230400-
SOUTHERN LAKE MICHIGAN

STATION/POSITION TIME  TEMP    WIND        PRES    WAVE
                       AIR SEA DIR/SP/G            HT
                 (UTC) (F)     (DEG/KT/KT) (MB)    (FT)
BURNS HARBOR     0240   56      30/ 14/ 16 1016.9S
MICHIGAN CITY    0240   56      10/ 15/ 16   N/A
5NW MICH CITY    0300   56 58   20/ 14/ 17   N/A     6

$$

INZ004-005-014>016-021>024-230400-
NORTH CENTRAL INDIANA

CITY           SKY/WX    TMP DP  RH WIND       PRES   REMARKS
GOSHEN         CLOUDY    66  60  81 CALM      29.99S
LOGANSPORT +   CLOUDY    68  55  64 S6        29.98F
PERU/GRISSOM   CLOUDY    69  55  60 S15       29.98S
SOUTH BEND     CLOUDY    57  57 100 N7        30.01S
WARSAW +       CLOUDY    68  55  64 S5        29.99F

$$

INZ006>009-017-018-025>027-230400-
NORTHEAST INDIANA

CITY           SKY/WX    TMP DP  RH WIND       PRES   REMARKS
AUBURN +       PTCLDY    66  52  59 S5        30.02F
FORT WAYNE     CLOUDY    66  52  60 S10       30.02F
HUNTINGTON +   CLOUDY    67  53  59 SE7       30.01S
KENDALLVILLE + CLOUDY    67  54  63 S10       30.02S

$$

INZ028-029-035-036-043>045-051>053-230400-
WEST CENTRAL INDIANA

CITY           SKY/WX    TMP DP  RH WIND       PRES   REMARKS
CRAWFORDSVL +  CLOUDY    66  57  72 SE5       29.96F
GREENCASTLE +  CLOUDY    68  55  64 SE6       29.97F
LAFAYETTE      CLOUDY    60  58  92 N3        29.97F
TERRE HAUTE    LGT RAIN  61  59  93 NW6       29.96S

$$

INZ030>032-037>040-046>048-054>057-064-065-230400-
CENTRAL INDIANA

CITY           SKY/WX    TMP DP  RH WIND       PRES   REMARKS
CP ATTERBURY + CLOUDY    68  54  60 SE7       29.99F
FISHERS *+     CLOUDY    66  57  72 SE7       29.99F
FRANKFORT +    CLOUDY    71  58  64 S6        29.99F
GREENWOOD *+   CLOUDY    70  56  62 SE8       30.00F
INDIANAPOLIS   CLOUDY    68  55  63 SE14      29.98F
-EAGLE CREEK   CLOUDY    70  54  56 SE10G20   29.98F
KOKOMO +       CLOUDY    68  55  63 S10       30.00F
MT COMFORT *+  PTCLDY    66  57  72 SE8       30.00F
SHELBYVILLE    MOCLDY    68  53  58 SE13      30.00F
ZIONSVILLE +   MOCLDY    67  55  64 S12       29.99F

$$

INZ033-034-041-042-049-050-058-059-230400-
EAST CENTRAL INDIANA

CITY           SKY/WX    TMP DP  RH WIND       PRES   REMARKS
MUNCIE         CLOUDY    69  51  52 S10       30.01F
RICHMOND +     CLOUDY    63  50  63 SE9       30.06F

$$

INZ060-061-067>069-081>083-085>088-230400-
SOUTHWEST INDIANA

CITY           SKY/WX    TMP DP  RH WIND       PRES   REMARKS
EVANSVILLE     RAIN      66  64  93 S8        29.95F FOG
HUNTINGBURG +  CLOUDY    72  60  66 SE15      29.95F
WASHINGTON +   LGT RAIN  68  59  74 S5        29.95S

$$

INZ062-063-066-070>080-084-089>092-230400-
SOUTH CENTRAL AND SOUTHEAST INDIANA

CITY           SKY/WX    TMP DP  RH WIND       PRES   REMARKS
BEDFORD +      CLOUDY    70  55  60 SE6       29.97
BLOOMINGTON    CLOUDY    71  56  58 SE8       29.97F
MADISON *+     CLOUDY    66  52  59 E6        30.05S
NORTH VERNON + MOCLDY    66  54  63 SE7       30.01
SEYMOUR +      CLOUDY    70  55  60 SE9       29.99F

$$





USA.gov is the U.S. government's official web portal to all federal, state and local government web resources and services.